カタログに戻る

STARLINK-34620

運用中通信VLEO
NORAD 64803·PAYLOAD·🇺🇸 United States

打ち上げ Jul 16, 2025 から Vandenberg Space Force Base

Loading…

次のパス (今後24時間)

TLE

最新Source: CelesTrak SupGP

元期: Sep 14, 2026, 20:33 UTC

1 64803C 25150P   26257.85673611 -.00001768  00000+0 -14812-3 0  2572
2 64803  70.0028  17.6521 0003560 273.2301 249.4407 14.98332430    12

AllMySatでSTARLINK-34620をリアルタイム追跡

Download on the App Store